Camden, AR

5:35 AM CST on December 13, 2017 (GMT -0600)
Harrell

Weather History for KCDH - February, 2014

Change the Weather History Date:

Sunday, February 16, 2014

  Actual Average Record
Temperature  
Mean Temperature 50 °F -  
Max Temperature 71 °F 58 °F 80 °F (1945)
Min Temperature 30 °F 37 °F 21 °F (1958)
Degree Days  
Heating Degree Days 14    
Moisture  
Dew Point 32 °F    
Average Humidity 55    
Maximum Humidity 93    
Minimum Humidity 23    
Precipitation  
Precipitation 0.00 in - - ()
Sea Level Pressure  
Sea Level Pressure 30.09 in    
Wind  
Wind Speed - (North)    
Max Wind Speed -    
Max Gust Speed -    
Visibility 10 miles    
Events Rain    
Averages and records for this station are not official NWS values.
T = Trace of Precipitation, MM = Missing Value Source: NWS Daily Summary

Daily Weather History Graph

Daily Weather History Graph

Search for Another Location

Airport or City:

Trip Planner

Search our weather history database for the weather conditions in past years. The results will help you decide how hot, cold, wet, or windy it might be!

Date:

Astronomy

Feb. 16, 2014 Rise Set
Actual Time 6:54 AM CST 5:56 PM CST
Civil Twilight 6:28 AM CST 6:21 PM CST
Nautical Twilight 5:59 AM CST 6:51 PM CST
Astronomical Twilight 5:30 AM CST 7:20 PM CST
Moon 7:45 PM CST (2/16) 7:30 AM CST (2/16)
Length of Visible Light 11h 53m
Length of Day
11h 02m
Full, 97% of the Moon is Illuminated
Feb 16
Full
Feb 22
Last Quarter
Mar 1
New
Mar 8
First Quarter
Mar 16
Full

Hourly Weather History & Observations

Time (CST) Temp. Dew Point Humidity Pressure Visibility Wind Dir Wind Speed Gust Speed Precip Events Conditions
12:15 AM 33.8 °F 28.4 °F 81% 30.09 in 10.0 mi North - - N/A   Clear
12:35 AM 33.8 °F 28.4 °F 81% 30.10 in 10.0 mi North - - N/A   Clear
12:55 AM 32.0 °F 28.4 °F 87% 30.09 in 10.0 mi North - - N/A   Clear
1:15 AM 32.0 °F 28.4 °F 87% 30.09 in 10.0 mi North - - N/A   Clear
1:35 AM 32.0 °F 28.4 °F 87% 30.09 in 10.0 mi North - - N/A   Clear
1:55 AM 32.0 °F 28.4 °F 87% 30.09 in 10.0 mi North - - N/A   Clear
2:15 AM 32.0 °F 28.4 °F 87% 30.09 in 10.0 mi North - - N/A   Clear
2:35 AM 32.0 °F 28.4 °F 87% 30.09 in 10.0 mi North - - N/A   Clear
2:55 AM 32.0 °F 28.4 °F 87% 30.10 in 10.0 mi North - - N/A   Clear
3:15 AM 32.0 °F 28.4 °F 87% 30.10 in 10.0 mi North - - N/A   Clear
3:35 AM 32.0 °F 28.4 °F 87% 30.10 in 10.0 mi North - - N/A   Clear
3:55 AM 32.0 °F 28.4 °F 87% 30.09 in 10.0 mi North - - N/A   Clear
4:15 AM 30.2 °F 28.4 °F 93% 30.09 in 10.0 mi North - - N/A   Clear
4:35 AM 32.0 °F 28.4 °F 87% 30.09 in 10.0 mi North - - N/A   Clear
4:55 AM 32.0 °F 28.4 °F 87% 30.10 in 10.0 mi North - - N/A   Clear
5:15 AM 30.2 °F 26.6 °F 86% 30.10 in 10.0 mi North - - N/A   Clear
5:35 AM 30.2 °F 26.6 °F 86% 30.10 in 10.0 mi North - - N/A   Clear
5:55 AM 30.2 °F 26.6 °F 86% 30.11 in 10.0 mi North - - N/A   Clear
6:15 AM 30.2 °F 26.6 °F 86% 30.13 in 10.0 mi North - - N/A   Clear
6:35 AM 32.0 °F 28.4 °F 87% 30.14 in 10.0 mi North - - N/A   Clear
6:55 AM 30.2 °F 26.6 °F 86% 30.13 in 9.0 mi North - - N/A   Clear
7:15 AM 30.2 °F 26.6 °F 86% 30.14 in 9.0 mi North - - N/A   Clear
7:35 AM 30.2 °F 26.6 °F 86% 30.14 in 9.0 mi North - - N/A   Clear
7:55 AM 32.0 °F 30.2 °F 93% 30.14 in 9.0 mi North - - N/A   Clear
8:15 AM 37.4 °F 32.0 °F 81% 30.14 in 10.0 mi North - - N/A   Clear
8:35 AM 41.0 °F 32.0 °F 70% 30.14 in 10.0 mi North - - N/A   Clear
8:55 AM 42.8 °F 32.0 °F 66% 30.15 in 10.0 mi North - - N/A   Clear
9:15 AM 48.2 °F 32.0 °F 54% 30.15 in 10.0 mi North - - N/A   Clear
9:55 AM 57.2 °F 32.0 °F 38% 30.15 in 10.0 mi North - - N/A   Clear
10:15 AM 57.2 °F 32.0 °F 38% 30.15 in 10.0 mi North - - N/A   Clear
10:35 AM 59.0 °F 32.0 °F 36% 30.15 in 10.0 mi North - - N/A   Clear
10:55 AM 62.6 °F 32.0 °F 32% 30.15 in 10.0 mi North - - N/A   Clear
11:15 AM 64.4 °F 32.0 °F 30% 30.15 in 10.0 mi North - - N/A   Clear
11:35 AM 66.2 °F 32.0 °F 28% 30.14 in 10.0 mi North - - N/A   Clear
11:55 AM 66.2 °F 32.0 °F 28% 30.14 in 10.0 mi North - - N/A   Clear
12:15 PM 68.0 °F 32.0 °F 26% 30.13 in 10.0 mi North - - N/A Rain Light Rain
12:35 PM 68.0 °F 32.0 °F 26% 30.12 in 10.0 mi North - - N/A   Clear
12:55 PM 71.6 °F 32.0 °F 23% 30.11 in 10.0 mi North - - N/A   Clear
1:15 PM 68.0 °F 32.0 °F 26% 30.10 in 10.0 mi North - - N/A   Clear
1:35 PM 71.6 °F 32.0 °F 23% 30.10 in 9.0 mi North - - N/A   Clear
1:55 PM 71.6 °F 32.0 °F 23% 30.09 in 10.0 mi North - - N/A   Clear
2:15 PM 71.6 °F 32.0 °F 23% 30.08 in 10.0 mi North - - N/A   Clear
2:35 PM 71.6 °F 32.0 °F 23% 30.07 in 10.0 mi North - - N/A   Clear
2:55 PM 71.6 °F 32.0 °F 23% 30.06 in 10.0 mi North - - N/A   Clear
3:15 PM 69.8 °F 32.0 °F 25% 30.07 in 9.0 mi North - - N/A   Clear
3:35 PM 71.6 °F 32.0 °F 23% 30.07 in 10.0 mi North - - N/A   Clear
3:55 PM 69.8 °F 32.0 °F 25% 30.06 in 5.0 mi North - - N/A   Haze
4:15 PM 68.0 °F 32.0 °F 26% 30.06 in 10.0 mi North - - N/A   Clear
4:35 PM 68.0 °F 32.0 °F 26% 30.05 in 10.0 mi North - - N/A   Clear
4:55 PM 68.0 °F 32.0 °F 26% 30.06 in 10.0 mi North - - N/A   Clear
5:15 PM 68.0 °F 32.0 °F 26% 30.05 in 10.0 mi North - - N/A   Clear
5:35 PM 68.0 °F 32.0 °F 26% 30.05 in 10.0 mi North - - N/A   Clear
5:55 PM 64.4 °F 32.0 °F 30% 30.06 in 10.0 mi North - - N/A   Clear
6:15 PM 62.6 °F 33.8 °F 34% 30.06 in 10.0 mi North - - N/A   Clear
6:35 PM 60.8 °F 35.6 °F 39% 30.06 in 10.0 mi North - - N/A   Partly Cloudy
6:55 PM 59.0 °F 35.6 °F 42% 30.06 in 10.0 mi North - - N/A   Partly Cloudy
7:15 PM 59.0 °F 35.6 °F 42% 30.06 in 10.0 mi North - - N/A   Clear
7:35 PM 59.0 °F 37.4 °F 45% 30.05 in 10.0 mi North - - N/A   Clear
7:55 PM 57.2 °F 37.4 °F 48% 30.05 in 10.0 mi North - - N/A   Clear
8:15 PM 57.2 °F 37.4 °F 48% 30.05 in 10.0 mi North - - N/A   Clear
8:35 PM 55.4 °F 37.4 °F 51% 30.06 in 10.0 mi North - - N/A   Clear
8:55 PM 55.4 °F 37.4 °F 51% 30.05 in 10.0 mi North - - N/A   Clear
9:15 PM 53.6 °F 37.4 °F 54% 30.04 in 10.0 mi North - - N/A   Clear
9:35 PM 53.6 °F 37.4 °F 54% 30.04 in 10.0 mi North - - N/A   Partly Cloudy
9:55 PM 53.6 °F 39.2 °F 58% 30.04 in 10.0 mi North - - N/A   Mostly Cloudy
10:15 PM 55.4 °F 39.2 °F 54% 30.03 in 10.0 mi North - - N/A   Overcast
10:35 PM 55.4 °F 39.2 °F 54% 30.03 in 10.0 mi North - - N/A   Overcast
10:55 PM 55.4 °F 39.2 °F 54% 30.03 in 10.0 mi North - - N/A   Overcast
11:15 PM 55.4 °F 39.2 °F 54% 30.04 in 10.0 mi North - - N/A   Overcast
11:35 PM 55.4 °F 39.2 °F 54% 30.04 in 10.0 mi North - - N/A   Mostly Cloudy
11:55 PM 55.4 °F 39.2 °F 54% 30.03 in 10.0 mi North - - N/A   Overcast